Starlink 32424

operational
NORAD ID: 61548 Int'l Des: 2024-184 Owner: SPXS Country: US Constellation: starlink
LEOCIRCULAR

关于 Starlink 32424

正在加载描述...

实时位置

正在加载3D地球...

即将过境

高度历史

Altitude vs Time

uPlot chart will show altitude changes over time

两行轨道根数

1 61548U 24184S 25306.12560801 .00002400 00000-0 93156-4 0 9996
2 61548 53.1605 246.6572 0001067 84.6774 275.4348 15.30193530 58970
Epoch: Nov 2, 2025 • Age: 35 hours

当前状态

高度 480.3 km
速度 7.63 km/s
星下点 49.98°N, 52.12°E
发射日期 Oct 15, 2024
运行时间 1 years
类型 internet

技术详情

分类 Payload
质量 730.00 kg
干质量 700.00 kg
总质量 730.00 kg
长度 0.30 m
直径 4.10 m
跨度 29.00 m
形状 Box + pan
制造商 SPXS
平台类型 Starlink V2M
阶段状态 In Orbit
所有者/国家 SPXS/US

大型星座

Loading constellations...